N256VM SAZS-SCVI

Flight info

Callsign N256VM
Flight time 0h 57m
Altitude 10000
Route CHATO1C CHATO DCT CHP
Aircraft S22T/L-SDGRY/S

Departure

Time 2026-04-26 16:40
Airport Teniente Luis Candelaria International Airport (SAZS)

Arrival

Time 2026-04-26 17:37
Airport Villarrica Airport (SCVI)
Time Latitude Longitude Altitude Speed Heading
2026-04-26 15:58 -41.14879 -71.15666 2754 ft 0 kts 306°
2026-04-26 16:35 -41.14882 -71.15628 2754 ft 11 kts 172°
2026-04-26 16:35 -41.14960 -71.15648 2755 ft 0 kts 204°
2026-04-26 16:36 -41.14964 -71.15650 2755 ft 3 kts 205°
2026-04-26 16:36 -41.14983 -71.15699 2756 ft 11 kts 285°
2026-04-26 16:37 -41.14939 -71.15827 2753 ft 19 kts 294°
2026-04-26 16:37 -41.14874 -71.16010 2752 ft 24 kts 295°
2026-04-26 16:37 -41.14802 -71.16216 2750 ft 23 kts 294°
2026-04-26 16:37 -41.14832 -71.16305 2750 ft 0 kts 200°
2026-04-26 16:39 -41.14837 -71.16308 2750 ft 9 kts 200°
2026-04-26 16:39 -41.14959 -71.16203 2753 ft 54 kts 116°
2026-04-26 16:39 -41.15185 -71.15486 2795 ft 105 kts 112°
2026-04-26 16:39 -41.15482 -71.14539 3084 ft 117 kts 109°
2026-04-26 16:40 -41.15790 -71.13535 3457 ft 117 kts 111°
2026-04-26 16:40 -41.16163 -71.12582 3895 ft 116 kts 114°
2026-04-26 16:40 -41.16567 -71.11495 3831 ft 147 kts 114°
2026-04-26 16:40 -41.17028 -71.10216 3913 ft 156 kts 113°
2026-04-26 16:41 -41.17487 -71.08915 4128 ft 157 kts 114°
2026-04-26 16:41 -41.17927 -71.07569 4328 ft 160 kts 107°
2026-04-26 16:41 -41.18003 -71.06092 4535 ft 165 kts 80°
2026-04-26 16:41 -41.17663 -71.04629 4747 ft 168 kts 56°
2026-04-26 16:42 -41.16901 -71.03450 4934 ft 169 kts 34°
2026-04-26 16:42 -41.15886 -71.02744 5095 ft 166 kts 10°
2026-04-26 16:42 -41.14773 -71.02323 5252 ft 167 kts 11°
2026-04-26 16:42 -41.13685 -71.01809 5408 ft 165 kts 14°
2026-04-26 16:43 -41.12615 -71.01253 5562 ft 167 kts 14°
2026-04-26 16:43 -41.11506 -71.00693 5728 ft 171 kts 14°
2026-04-26 16:43 -41.10372 -71.00136 5891 ft 176 kts 13°
2026-04-26 16:43 -41.09215 -70.99566 6037 ft 176 kts 13°
2026-04-26 16:44 -41.08070 -70.99001 6198 ft 175 kts 13°
2026-04-26 16:44 -41.06931 -70.98447 6348 ft 177 kts 13°
2026-04-26 16:44 -41.05769 -70.97882 6515 ft 179 kts 13°
2026-04-26 16:44 -41.04580 -70.97308 6709 ft 181 kts 13°
2026-04-26 16:45 -41.03406 -70.96771 6944 ft 177 kts
2026-04-26 16:45 -41.02212 -70.96690 7188 ft 168 kts 344°
2026-04-26 16:45 -41.01053 -70.96909 7431 ft 169 kts 344°
2026-04-26 16:45 -40.99888 -70.97040 7680 ft 171 kts 347°
2026-04-26 16:46 -40.98700 -70.97145 7920 ft 171 kts 347°
2026-04-26 16:46 -40.97500 -70.97260 8172 ft 173 kts 346°
2026-04-26 16:46 -40.96293 -70.97371 8424 ft 173 kts 346°
2026-04-26 16:46 -40.95111 -70.97489 8687 ft 172 kts 345°
2026-04-26 16:47 -40.93901 -70.97619 8932 ft 173 kts 344°
2026-04-26 16:47 -40.92713 -70.97743 9176 ft 171 kts 344°
2026-04-26 16:47 -40.91541 -70.97859 9446 ft 170 kts 343°
2026-04-26 16:47 -40.90331 -70.97988 9712 ft 175 kts 342°
2026-04-26 16:48 -40.89107 -70.98117 9962 ft 182 kts 342°
2026-04-26 16:48 -40.87810 -70.98271 9982 ft 194 kts 343°
2026-04-26 16:48 -40.86418 -70.98434 9985 ft 203 kts 344°
2026-04-26 16:48 -40.84993 -70.98586 9980 ft 209 kts 344°
2026-04-26 16:49 -40.83530 -70.98738 9983 ft 211 kts 345°
2026-04-26 16:49 -40.82064 -70.98890 9975 ft 214 kts 345°
2026-04-26 16:49 -40.80563 -70.99042 9977 ft 216 kts 345°
2026-04-26 16:49 -40.79071 -70.99195 9977 ft 218 kts 345°
2026-04-26 16:50 -40.77551 -70.99354 9973 ft 218 kts 345°
2026-04-26 16:50 -40.76046 -70.99512 9964 ft 218 kts 345°
2026-04-26 16:50 -40.74541 -70.99660 9968 ft 213 kts 345°
2026-04-26 16:50 -40.73080 -70.99803 9969 ft 213 kts 345°
2026-04-26 16:51 -40.71602 -70.99960 9959 ft 211 kts 344°
2026-04-26 16:51 -40.70129 -71.00118 9960 ft 211 kts 344°
2026-04-26 16:51 -40.68675 -71.00272 9958 ft 211 kts 344°
2026-04-26 16:51 -40.67214 -71.00418 9959 ft 208 kts 344°
2026-04-26 16:52 -40.65781 -71.00565 9959 ft 208 kts 344°
2026-04-26 16:52 -40.64824 -71.00665 9957 ft 207 kts 344°
2026-04-26 16:52 -40.62923 -71.00864 9958 ft 205 kts 343°
2026-04-26 16:52 -40.61495 -71.01015 9960 ft 205 kts 343°
2026-04-26 16:53 -40.60085 -71.01167 9959 ft 206 kts 343°
2026-04-26 16:53 -40.58650 -71.01322 9957 ft 205 kts 344°
2026-04-26 16:53 -40.57231 -71.01466 9963 ft 204 kts 343°
2026-04-26 16:53 -40.55842 -71.01661 9960 ft 201 kts 341°
2026-04-26 16:54 -40.54451 -71.01875 9971 ft 202 kts 341°
2026-04-26 16:54 -40.53050 -71.02101 9964 ft 202 kts 341°
2026-04-26 16:54 -40.51660 -71.02319 9959 ft 201 kts 341°
2026-04-26 16:54 -40.50262 -71.02533 9964 ft 200 kts 341°
2026-04-26 16:55 -40.48896 -71.02745 9968 ft 199 kts 341°
2026-04-26 16:55 -40.47512 -71.02965 9967 ft 199 kts 341°
2026-04-26 16:55 -40.46151 -71.03179 9963 ft 198 kts 341°
2026-04-26 16:55 -40.44777 -71.03392 9963 ft 197 kts 341°
2026-04-26 16:56 -40.42017 -71.03832 9974 ft 203 kts 341°
2026-04-26 16:56 -40.40633 -71.04044 9974 ft 202 kts 341°
2026-04-26 16:56 -40.39245 -71.04250 9975 ft 201 kts 341°
2026-04-26 16:57 -40.37860 -71.04457 9974 ft 199 kts 341°
2026-04-26 16:57 -40.36492 -71.04668 9968 ft 200 kts 341°
2026-04-26 16:57 -40.33788 -71.05083 9979 ft 193 kts 340°
2026-04-26 16:58 -40.32442 -71.05295 9973 ft 193 kts 340°
2026-04-26 16:58 -40.31546 -71.05438 9989 ft 196 kts 340°
2026-04-26 16:58 -40.28334 -71.05931 9980 ft 199 kts 340°
2026-04-26 16:59 -40.26965 -71.06139 9978 ft 198 kts 340°
2026-04-26 16:59 -40.24222 -71.06563 9978 ft 199 kts 340°
2026-04-26 17:00 -40.21496 -71.06982 9972 ft 198 kts 340°
2026-04-26 17:00 -40.18770 -71.07401 9971 ft 196 kts 340°
2026-04-26 17:00 -40.17430 -71.07604 9971 ft 194 kts 340°
2026-04-26 17:01 -40.16085 -71.07816 9972 ft 197 kts 340°
2026-04-26 17:01 -40.14709 -71.08031 9966 ft 197 kts 340°
2026-04-26 17:01 -40.13364 -71.08229 9969 ft 195 kts 340°
2026-04-26 17:01 -40.12019 -71.08432 9976 ft 196 kts 340°
2026-04-26 17:02 -40.10669 -71.08636 9971 ft 191 kts 340°
2026-04-26 17:02 -40.09364 -71.08835 9972 ft 191 kts 340°
2026-04-26 17:02 -40.08041 -71.09043 9977 ft 193 kts 340°
2026-04-26 17:02 -40.06686 -71.09256 9970 ft 195 kts 339°
2026-04-26 17:03 -40.05425 -71.09667 9974 ft 183 kts 323°
2026-04-26 17:03 -40.04360 -71.10472 9972 ft 174 kts 309°
2026-04-26 17:03 -40.03520 -71.11558 9985 ft 166 kts 296°
2026-04-26 17:03 -40.02829 -71.12744 9978 ft 166 kts 295°
2026-04-26 17:04 -40.02109 -71.13950 9976 ft 168 kts 297°
2026-04-26 17:04 -40.01371 -71.15130 9978 ft 169 kts 297°
2026-04-26 17:04 -40.00617 -71.16306 9975 ft 168 kts 298°
2026-04-26 17:04 -39.99875 -71.17464 9973 ft 166 kts 297°
2026-04-26 17:05 -39.99134 -71.18627 9967 ft 165 kts 297°
2026-04-26 17:05 -39.98406 -71.19773 9967 ft 165 kts 297°
2026-04-26 17:05 -39.97668 -71.20939 9966 ft 166 kts 297°
2026-04-26 17:05 -39.96952 -71.22052 9970 ft 157 kts 297°
2026-04-26 17:06 -39.96266 -71.23123 9967 ft 151 kts 297°
2026-04-26 17:06 -39.95609 -71.24159 9965 ft 148 kts 297°
2026-04-26 17:06 -39.94956 -71.25194 9963 ft 145 kts 296°
2026-04-26 17:06 -39.94383 -71.26105 9962 ft 145 kts 296°
2026-04-26 17:07 -39.93736 -71.27126 9964 ft 145 kts 296°
2026-04-26 17:07 -39.93096 -71.28134 9966 ft 144 kts 297°
2026-04-26 17:07 -39.92466 -71.29127 9966 ft 143 kts 296°
2026-04-26 17:07 -39.91832 -71.30120 9967 ft 142 kts 296°
2026-04-26 17:08 -39.91209 -71.31095 9966 ft 135 kts 296°
2026-04-26 17:08 -39.90619 -71.32008 9963 ft 129 kts 296°
2026-04-26 17:08 -39.90055 -71.32894 9963 ft 126 kts 295°
2026-04-26 17:08 -39.89503 -71.33764 9963 ft 123 kts 295°
2026-04-26 17:09 -39.88956 -71.34620 9969 ft 123 kts 295°
2026-04-26 17:09 -39.88588 -71.35199 9963 ft 124 kts 295°
2026-04-26 17:09 -39.87861 -71.36327 9968 ft 121 kts 295°
2026-04-26 17:09 -39.87327 -71.37175 9970 ft 119 kts 294°
2026-04-26 17:10 -39.86799 -71.38015 9966 ft 120 kts 295°
2026-04-26 17:10 -39.86271 -71.38855 9962 ft 121 kts 294°
2026-04-26 17:10 -39.85727 -71.39716 9978 ft 126 kts 295°
2026-04-26 17:10 -39.85162 -71.40614 9968 ft 129 kts 295°
2026-04-26 17:11 -39.84586 -71.41498 9979 ft 129 kts 296°
2026-04-26 17:11 -39.84022 -71.42380 9980 ft 127 kts 296°
2026-04-26 17:11 -39.83448 -71.43278 9979 ft 130 kts 296°
2026-04-26 17:11 -39.82871 -71.44180 9969 ft 127 kts 296°
2026-04-26 17:12 -39.81837 -71.45757 9960 ft 108 kts 295°
2026-04-26 17:12 -39.81348 -71.46528 9967 ft 114 kts 293°
2026-04-26 17:13 -39.80295 -71.48221 9973 ft 126 kts 295°
2026-04-26 17:13 -39.79737 -71.49084 9980 ft 122 kts 295°
2026-04-26 17:13 -39.78649 -71.50777 9970 ft 121 kts 295°
2026-04-26 17:14 -39.78130 -71.51580 9959 ft 119 kts 295°
2026-04-26 17:14 -39.77066 -71.53247 9964 ft 119 kts 295°
2026-04-26 17:14 -39.76532 -71.54079 9966 ft 119 kts 295°
2026-04-26 17:15 -39.75466 -71.55740 9965 ft 119 kts 295°
2026-04-26 17:15 -39.74942 -71.56560 9959 ft 119 kts 295°
2026-04-26 17:15 -39.74409 -71.57393 9963 ft 119 kts 296°
2026-04-26 17:16 -39.73880 -71.58219 9968 ft 122 kts 295°
2026-04-26 17:16 -39.73332 -71.59077 9966 ft 122 kts 296°
2026-04-26 17:16 -39.72798 -71.59912 9960 ft 121 kts 295°
2026-04-26 17:16 -39.72254 -71.60752 9962 ft 119 kts 296°
2026-04-26 17:17 -39.71730 -71.61559 9963 ft 117 kts 296°
2026-04-26 17:17 -39.71209 -71.62371 9969 ft 116 kts 295°
2026-04-26 17:17 -39.70735 -71.63111 9947 ft 114 kts 295°
2026-04-26 17:17 -39.70191 -71.63950 9977 ft 117 kts 296°
2026-04-26 17:18 -39.69656 -71.64774 9967 ft 119 kts 296°
2026-04-26 17:18 -39.69134 -71.65563 9976 ft 112 kts 295°
2026-04-26 17:18 -39.68631 -71.66355 9974 ft 115 kts 295°
2026-04-26 17:18 -39.68120 -71.67144 9972 ft 113 kts 295°
2026-04-26 17:19 -39.67095 -71.68780 9966 ft 114 kts 295°
2026-04-26 17:19 -39.66686 -71.69415 9984 ft 120 kts 295°
2026-04-26 17:19 -39.66319 -71.70018 9993 ft 138 kts 296°
2026-04-26 17:20 -39.65442 -71.71423 9992 ft 159 kts 299°
2026-04-26 17:20 -39.65199 -71.71801 9991 ft 162 kts 299°
2026-04-26 17:20 -39.64215 -71.73304 9986 ft 168 kts 300°
2026-04-26 17:20 -39.63193 -71.74853 9986 ft 168 kts 300°
2026-04-26 17:21 -39.62693 -71.75616 9982 ft 167 kts 300°
2026-04-26 17:21 -39.61681 -71.77171 9985 ft 170 kts 300°
2026-04-26 17:21 -39.61178 -71.77951 9984 ft 170 kts 300°
2026-04-26 17:21 -39.60418 -71.79132 9986 ft 170 kts 300°
2026-04-26 17:22 -39.59651 -71.80314 9985 ft 172 kts 300°
2026-04-26 17:22 -39.58880 -71.81500 9985 ft 172 kts 300°
2026-04-26 17:22 -39.58112 -71.82690 9987 ft 173 kts 300°
2026-04-26 17:22 -39.57334 -71.83892 9988 ft 174 kts 300°
2026-04-26 17:23 -39.56557 -71.85090 9985 ft 172 kts 301°
2026-04-26 17:23 -39.55793 -71.86259 9980 ft 168 kts 300°
2026-04-26 17:23 -39.55058 -71.87386 9982 ft 163 kts 300°
2026-04-26 17:23 -39.54314 -71.88537 9985 ft 165 kts 300°
2026-04-26 17:24 -39.53594 -71.89651 9983 ft 157 kts 300°
2026-04-26 17:24 -39.53057 -71.90461 9980 ft 145 kts 299°
2026-04-26 17:24 -39.52425 -71.91425 9977 ft 135 kts 298°
2026-04-26 17:24 -39.51840 -71.92324 9980 ft 126 kts 297°
2026-04-26 17:25 -39.51307 -71.93131 9979 ft 108 kts 296°
2026-04-26 17:25 -39.50851 -71.93824 9971 ft 96 kts 293°
2026-04-26 17:25 -39.50447 -71.94447 9946 ft 85 kts 291°
2026-04-26 17:25 -39.50070 -71.95034 9767 ft 90 kts 291°
2026-04-26 17:26 -39.49655 -71.95715 9526 ft 103 kts 294°
2026-04-26 17:26 -39.49185 -71.96467 9304 ft 111 kts 296°
2026-04-26 17:26 -39.48677 -71.97269 9087 ft 119 kts 298°
2026-04-26 17:26 -39.48141 -71.98103 8855 ft 122 kts 299°
2026-04-26 17:27 -39.47588 -71.98958 8629 ft 126 kts 300°
2026-04-26 17:27 -39.47012 -71.99846 8397 ft 131 kts 301°
2026-04-26 17:27 -39.46421 -72.00758 8151 ft 131 kts 302°
2026-04-26 17:27 -39.45826 -72.01662 7914 ft 134 kts 302°
2026-04-26 17:28 -39.45218 -72.02588 7677 ft 137 kts 303°
2026-04-26 17:28 -39.44599 -72.03537 7433 ft 138 kts 303°
2026-04-26 17:28 -39.43977 -72.04484 7189 ft 138 kts 303°
2026-04-26 17:28 -39.43364 -72.05419 6947 ft 137 kts 304°
2026-04-26 17:29 -39.42737 -72.06377 6698 ft 138 kts 304°
2026-04-26 17:29 -39.42329 -72.07000 6531 ft 138 kts 305°
2026-04-26 17:29 -39.41500 -72.08274 6186 ft 140 kts 305°
2026-04-26 17:29 -39.40887 -72.09214 6014 ft 130 kts 305°
2026-04-26 17:30 -39.40345 -72.10026 5990 ft 109 kts 305°
2026-04-26 17:30 -39.39870 -72.10729 5995 ft 102 kts 305°
2026-04-26 17:30 -39.39436 -72.11394 5984 ft 89 kts 303°
2026-04-26 17:30 -39.39047 -72.11995 5974 ft 88 kts 303°
2026-04-26 17:31 -39.38659 -72.12646 5800 ft 101 kts 300°
2026-04-26 17:31 -39.38200 -72.13503 5282 ft 130 kts 301°
2026-04-26 17:31 -39.37681 -72.14526 4929 ft 137 kts 300°
2026-04-26 17:31 -39.37201 -72.15541 4710 ft 126 kts 299°
2026-04-26 17:32 -39.36763 -72.16468 4516 ft 116 kts 301°
2026-04-26 17:32 -39.36145 -72.16880 4596 ft 95 kts 351°
2026-04-26 17:32 -39.35648 -72.17323 4544 ft 90 kts 298°
2026-04-26 17:32 -39.35253 -72.17912 4485 ft 94 kts 308°
2026-04-26 17:33 -39.34807 -72.18716 4011 ft 127 kts 300°
2026-04-26 17:33 -39.34549 -72.19874 3367 ft 149 kts 257°
2026-04-26 17:33 -39.35083 -72.20977 2718 ft 167 kts 228°
2026-04-26 17:34 -39.36354 -72.20209 1951 ft 168 kts 43°
2026-04-26 17:34 -39.35237 -72.20421 1493 ft 159 kts 336°
2026-04-26 17:34 -39.34361 -72.20831 1542 ft 134 kts 344°
2026-04-26 17:34 -39.33529 -72.21135 1530 ft 119 kts 340°
2026-04-26 17:35 -39.32775 -72.21526 1481 ft 108 kts 307°
2026-04-26 17:35 -39.32547 -72.22289 1344 ft 102 kts 275°
2026-04-26 17:35 -39.32534 -72.23139 1287 ft 87 kts 247°
2026-04-26 17:35 -39.32854 -72.23556 1336 ft 70 kts 173°
2026-04-26 17:36 -39.33194 -72.23189 1498 ft 77 kts 94°
2026-04-26 17:36 -39.33010 -72.22588 1592 ft 73 kts 18°
2026-04-26 17:36 -39.32425 -72.22554 1269 ft 98 kts 339°
2026-04-26 17:36 -39.31764 -72.22817 963 ft 90 kts 334°
2026-04-26 17:37 -39.31383 -72.23009 964 ft 19 kts 336°
2026-04-26 17:37 -39.31261 -72.23050 965 ft 16 kts 14°
2026-04-26 17:37 -39.31203 -72.23022 962 ft 7 kts 315°
2026-04-26 17:38 -39.31213 -72.23044 963 ft 0 kts 166°